RESOURCESAT-2

Last updated on Thu Oct 30 2025 00:02:31 GMT+0000 (Coordinated Universal Time)

1 37387U 11015A 25302.44422542 .00000182 00000+0 10335-3 0 9990 2 37387 98.7933 6.1826 0006408 153.8213 206.3289 14.21592647753391
UTC large
Height (km)
Speed (km/s)
/
Latitude / Longitude
Inclination (degrees)
Orbital Period (minutes)
Azimuth
Elevation
Range (km)
Doppler Factor

Next 0 passes for location: London (51.5072 / 0.1276)

Sorry there are no passes over London.